Wilmington, NC

10:04 AM EDT on May 24, 2017 (GMT -0400)
Wilmington International

Weather History for KILM - January, 2015

Change the Weather History Date:

Sunday, January 4, 2015

  Actual Average Record
Temperature  
Mean Temperature 71 °F 46 °F  
Max Temperature 76 °F 56 °F 78 °F (2004)
Min Temperature 65 °F 35 °F 11 °F (1918)
Degree Days  
Heating Degree Days 0 19  
Month to date heating degree days 42 76  
Since 1 July heating degree days 958 960  
Cooling Degree Days 6 0  
Month to date cooling degree days 6 0  
Year to date cooling degree days 6 0  
Growing Degree Days 18 (Base 50)    
Moisture  
Dew Point 66 °F    
Average Humidity 84    
Maximum Humidity 100    
Minimum Humidity 68    
Precipitation  
Precipitation 0.17 in 0.12 in 1.84 in (1886)
Month to date precipitation 0.43 0.47  
Year to date precipitation 0.43 0.47  
Snow  
Snow 0.00 in 0.00 in 0.50 in (1969)
Month to date snowfall 0.0 0.1  
Since 1 July snowfall 0.0 0.9  
Snow Depth 0.00 in    
Sea Level Pressure  
Sea Level Pressure 30.11 in    
Wind  
Wind Speed 16 mph (SSW)    
Max Wind Speed 29 mph    
Max Gust Speed 36 mph    
Visibility 9 miles    
Events Rain    
T = Trace of Precipitation, MM = Missing Value Source: NWS Daily Summary

Daily Weather History Graph

Daily Weather History Graph

Search for Another Location

Airport or City:

Trip Planner

Search our weather history database for the weather conditions in past years. The results will help you decide how hot, cold, wet, or windy it might be!

Date:

Astronomy

Jan. 04, 2015 Rise Set
Actual Time 7:18 AM EST 5:15 PM EST
Civil Twilight 6:50 AM EST 5:42 PM EST
Nautical Twilight 6:19 AM EST 6:13 PM EST
Astronomical Twilight 5:48 AM EST 6:44 PM EST
Moon 5:10 PM EST (1/4) 6:31 AM EST (1/4)
Length of Visible Light 10h 52m
Length of Day
9h 56m
Full, 100% of the Moon is Illuminated
Jan 4
Full
Jan 4
Full
Jan 13
Last Quarter
Jan 20
New
Jan 26
First Quarter

Hourly Weather History & Observations

Time (EST) Temp. Dew Point Humidity Pressure Visibility Wind Dir Wind Speed Gust Speed Precip Events Conditions
12:02 AM 66.0 °F 64.9 °F 96% 30.19 in 7.0 mi South 4.6 mph - N/A   Overcast
12:14 AM 66.0 °F 64.9 °F 96% 30.19 in 7.0 mi WSW 8.1 mph - 0.01 in Rain Light Rain
12:23 AM 66.0 °F 66.0 °F 100% 30.19 in 8.0 mi SSW 5.8 mph - 0.01 in   Mostly Cloudy
12:53 AM 66.9 °F 66.0 °F 97% 30.19 in 10.0 mi SSW 8.1 mph - 0.01 in   Mostly Cloudy
1:16 AM 66.9 °F 66.0 °F 97% 30.18 in 8.0 mi South 6.9 mph - 0.00 in Rain Light Rain
1:32 AM 66.9 °F 66.0 °F 97% 30.18 in 7.0 mi SSW 6.9 mph - 0.02 in Rain Light Rain
1:39 AM 68.0 °F 66.0 °F 93% 30.18 in 10.0 mi South 8.1 mph - 0.02 in   Overcast
1:49 AM 68.0 °F 66.2 °F 94% 30.18 in 10.0 mi South 9.2 mph - 0.02 in   Overcast
1:53 AM 68.0 °F 66.9 °F 96% 30.18 in 10.0 mi South 11.5 mph - 0.02 in   Overcast
2:53 AM 71.1 °F 68.0 °F 90% 30.17 in 10.0 mi South 12.7 mph 21.9 mph N/A   Overcast
3:53 AM 70.0 °F 68.0 °F 93% 30.14 in 10.0 mi South 12.7 mph 21.9 mph N/A   Overcast
4:45 AM 71.1 °F 68.0 °F 90% 30.14 in 10.0 mi South 16.1 mph - N/A   Mostly Cloudy
4:53 AM 71.1 °F 68.0 °F 90% 30.14 in 10.0 mi South 15.0 mph - N/A   Overcast
5:13 AM 71.1 °F 68.0 °F 90% 30.13 in 10.0 mi South 13.8 mph 23.0 mph N/A   Mostly Cloudy
5:53 AM 72.0 °F 68.0 °F 87% 30.13 in 10.0 mi South 16.1 mph - N/A   Mostly Cloudy
6:34 AM 70.0 °F 68.0 °F 93% 30.13 in 6.0 mi SSW 13.8 mph - 0.05 in Rain Light Rain
6:53 AM 71.1 °F 68.0 °F 90% 30.13 in 10.0 mi South 13.8 mph 25.3 mph 0.06 in   Mostly Cloudy
7:01 AM 71.1 °F 68.0 °F 90% 30.13 in 10.0 mi South 13.8 mph - N/A   Mostly Cloudy
7:53 AM 71.1 °F 68.0 °F 90% 30.14 in 10.0 mi SSW 15.0 mph 25.3 mph N/A   Overcast
8:10 AM 72.0 °F 69.1 °F 91% 30.14 in 10.0 mi SSW 18.4 mph 25.3 mph 0.00 in   Overcast
8:29 AM 72.0 °F 69.1 °F 91% 30.16 in 1.8 mi SW 19.6 mph 26.5 mph 0.04 in Rain Light Rain
8:32 AM 71.1 °F 69.1 °F 93% 30.16 in 3.0 mi SW 17.3 mph 26.5 mph 0.06 in Rain Light Rain
8:53 AM 72.0 °F 69.1 °F 91% 30.16 in 10.0 mi SW 16.1 mph 24.2 mph 0.08 in   Overcast
9:31 AM 72.0 °F 69.1 °F 91% 30.17 in 10.0 mi SW 16.1 mph 20.7 mph N/A   Overcast
9:53 AM 72.0 °F 68.0 °F 87% 30.16 in 10.0 mi SW 15.0 mph 23.0 mph 0.00 in Rain Light Rain
10:15 AM 71.1 °F 68.0 °F 90% 30.15 in 10.0 mi SSW 15.0 mph 21.9 mph 0.00 in Rain Light Rain
10:28 AM 71.1 °F 68.0 °F 90% 30.15 in 10.0 mi SSW 11.5 mph - 0.00 in   Overcast
10:37 AM 72.0 °F 68.0 °F 87% 30.15 in 10.0 mi SSW 12.7 mph - 0.00 in   Mostly Cloudy
10:53 AM 72.0 °F 68.0 °F 87% 30.14 in 10.0 mi SSW 12.7 mph 21.9 mph 0.00 in   Mostly Cloudy
11:53 AM 73.0 °F 68.0 °F 84% 30.11 in 10.0 mi SW 17.3 mph 26.5 mph N/A   Overcast
12:53 PM 73.9 °F 66.9 °F 79% 30.08 in 10.0 mi SW 20.7 mph 28.8 mph N/A   Mostly Cloudy
1:25 PM 75.0 °F 66.9 °F 76% 30.06 in 10.0 mi SW 16.1 mph 27.6 mph N/A   Scattered Clouds
1:53 PM 75.0 °F 66.9 °F 76% 30.05 in 10.0 mi WSW 23.0 mph 32.2 mph N/A   Clear
2:53 PM 73.9 °F 66.0 °F 76% 30.04 in 10.0 mi SW 15.0 mph 29.9 mph N/A   Partly Cloudy
3:21 PM 73.0 °F 66.9 °F 81% 30.04 in 10.0 mi SW 21.9 mph 32.2 mph N/A   Mostly Cloudy
3:41 PM 73.0 °F 66.9 °F 81% 30.04 in 10.0 mi SW 19.6 mph 28.8 mph N/A   Scattered Clouds
3:53 PM 73.0 °F 66.0 °F 79% 30.04 in 10.0 mi SW 23.0 mph 36.8 mph N/A   Scattered Clouds
4:06 PM 73.0 °F 66.0 °F 79% 30.04 in 10.0 mi SW 15.0 mph 29.9 mph N/A   Mostly Cloudy
4:33 PM 72.0 °F 66.0 °F 81% 30.04 in 10.0 mi SW 16.1 mph 35.7 mph N/A   Scattered Clouds
4:53 PM 72.0 °F 64.9 °F 78% 30.04 in 10.0 mi SW 18.4 mph 29.9 mph N/A   Partly Cloudy
5:53 PM 68.0 °F 64.0 °F 87% 30.04 in 10.0 mi South 13.8 mph - N/A   Clear
6:53 PM 66.9 °F 63.0 °F 87% 30.01 in 10.0 mi South 19.6 mph 28.8 mph 0.00 in Rain Light Rain
7:53 PM 68.0 °F 61.0 °F 78% 30.01 in 10.0 mi SSW 12.7 mph 21.9 mph 0.00 in   Mostly Cloudy
8:53 PM 68.0 °F 57.9 °F 70% 30.04 in 10.0 mi SW 18.4 mph 28.8 mph N/A   Clear
9:53 PM 68.0 °F 59.0 °F 73% 30.05 in 10.0 mi WSW 20.7 mph 25.3 mph 0.00 in   Scattered Clouds
10:53 PM 66.0 °F 60.1 °F 81% 30.06 in 10.0 mi SW 13.8 mph - N/A   Clear
11:53 PM 64.9 °F 60.1 °F 84% 30.06 in 10.0 mi SW 10.4 mph - N/A   Mostly Cloudy